User: anonymous   Login
Location: Del Oro Observatory
(38.3044°N, 104.8119°W)
Time: 19:21:12
(UTC-06:00)
Language:

Cosmos 1602 Rocket - Orbit

View from above orbital plane
View from above orbital plane
View from above satellite
View from above satellite

Ground track
Ground track

The orbit data is extracted from the following two-line orbital elements,

1 15332U 84105B   15144.53491203  .00000209  00000-0  22697-4 0  9995
2 15332 082.5340 173.3689 0020701 342.7711 177.7657 14.83080515654729
Epoch (UTC): 24 May 2015 12:50:16
Eccentricity: 0.0020701
inclination: 82.5340°
perigee height: 605 km
apogee height: 634 km
right ascension of ascending node: 173.3689°
argument of perigee: 342.7711°
revolutions per day: 14.83080515
mean anomaly at epoch: 177.7657°
orbit number at epoch: 65472

The dashed part of the orbit path shows where the satellite is in the earth's shadow,  

DLR